Weather in Yablonovo

Russia / Zabaykalsky Krai     51°50′30″N   112°45′31″E
temp.,
°C
wind,
m/s
gust,
m/s
humid.,
%
clouds,
%
prec.,
mm/h
press.,
hPa
HPBL,
m
20 january, wed
wed2000:00−16w228799 0.0 101320
03:00−18w228973 0.0 101320
06:00−16wnw2394100 0.0 101382
09:00−16w41191100 0.1 1015295
12:00−14w712683 0.0 1016860
15:00−12wnw611629 0.0 10151191
18:00−18wnw23830 0.0 101828
21:00−19w228433 0.0 102224
21 january, thu
thu2100:00−19wnw2285100 0.0 102424
03:00−19wsw3696100 0.1 1025163
06:00−21w4148843 0.0 1027625
09:00−23wnw4138844 0.0 1029500
12:00−21wnw612730 0.0 1029715
15:00−18wnw610670 0.0 1027932
18:00−22wnw37860 0.0 1029186
21:00−24wnw23890 0.0 103041
22 january, fri
fri2200:00−25w22900 0.0 103020
03:00−24sw119130 0.0 102920
06:00−23s1191100 0.0 102720
09:00−24ese1194100 0.0 102620
12:00−21ese1184100 0.0 1024117
15:00−17ese117767 0.0 1020222
18:00−23ese11940 0.0 102020
21:00−23se119524 0.0 102020
23 january, sat
sat2300:00−23ese1198100 0.0 101920
03:00−21sse1198100 0.0 101829
06:00−21ssw129670 0.0 101820
09:00−20w129269 0.0 101920
12:00−13w247872 0.0 1018205
15:00−9wsw147385 0.0 1015269
18:00−12nw1188100 0.0 101721
21:00−11w1295100 0.1 102022
24 january, sun
sun2400:00−10wsw2295100 0.6 102274
03:00−12wnw2294100 0.6 102426
06:00−16nw229195 0.0 102720
09:00−17nw128897 0.0 102920
12:00−14nnw1277100 0.0 1028146
15:00−13ene2273100 0.0 1026357
18:00−16ene2392100 0.0 1025168
21:00−16e3898100 0.3 1025355